[[{"header":{"parameterUnit":"m.s-1","parameterCategory":1,"la1":30.2991,"la2":30.254,"lo1":-89.0895,"lo2":-89.0444,"dy":0.0017,"dx":0.0017,"nx":28,"ny":28,"refTime":"2024-10-17T03:00:00:Z","depth":0,"parameterNumber":2,"parameterNumberName":"U-component_of_WINDS"},"data":[0,0,0,0,0,0,0,0,0,0,0,0,0,0,0,0,0,0,0,0,0,0,0,0,0,0,0,0,0,0,0,0,0,0,0,0,0,0,0,0,0,0,0,0,0,0,0,0,0,0,0,0,0,0,0,0,0,0,-2.7744,-2.7745,0,-2.7787,-2.7787,-2.7788,-2.7704,-2.7701,-2.7698,-2.7695,-2.7739,-2.7742,-2.7746,0,0,0,0,0,0,0,0,0,0,0,0,0,-2.7588,-2.7591,-2.7744,-2.7745,-2.7745,-2.7787,-2.7787,-2.7788,-2.7704,-2.7701,-2.7697,-2.7694,-2.7738,-2.7742,-2.7746,0,0,0,0,0,0,0,0,0,0,0,0,0,-2.7646,-2.7592,-2.7744,-2.7708,-2.7706,-2.7787,-2.7787,-2.7788,-2.7705,-2.7701,-2.7696,-2.7693,-2.7736,-2.7742,-2.7747,-2.7865,0,0,-2.7764,-2.7767,0,0,0,0,0,0,0,0,-2.7643,-2.7652,-2.7713,-2.7711,-2.7708,-2.7736,-2.7748,-2.7814,-2.7706,-2.7705,-2.7695,-2.7691,-2.7741,-2.7746,-2.7763,-2.7867,-2.7869,-2.7765,-2.7768,-2.777,-2.7772,0,0,0,0,0,0,0,-2.7639,-2.7649,-2.7761,-2.7714,-2.7711,-2.769,-2.7693,-2.776,-2.7746,-2.7705,-2.7699,-2.7705,-2.7739,-2.7758,-2.7764,-2.7869,-2.7765,-2.777,-2.7773,-2.7775,-2.807,-2.8074,0,0,0,0,0,0,-2.7639,-2.7647,-2.776,-2.7762,-2.7664,-2.7696,-2.77,-2.7731,-2.7745,-2.7743,-2.7709,-2.7701,-2.775,-2.7757,-2.7765,-2.7903,-2.777,-2.7776,-2.7779,-2.8066,-2.8071,-2.8076,0,0,0,0,0,0,-2.7636,-2.765,-2.7758,-2.7703,-2.7715,-2.7703,-2.7739,-2.7734,-2.7753,-2.7748,-2.7745,-2.7731,-2.7747,-2.7757,-2.784,-2.7903,-2.7778,-2.7783,-2.806,-2.8067,-2.8073,-2.818,0,0,0,0,0,0,-2.7632,-2.765,-2.7695,-2.7704,-2.7718,-2.7834,-2.7742,-2.7738,-2.7763,-2.7753,-2.7768,-2.7766,-2.7745,-2.7832,-2.7846,-2.7909,-2.7788,-2.8055,-2.8063,-2.8071,-2.8171,-2.819,-2.8206,0,0,0,0,0,-2.7627,-2.7723,-2.7698,-2.7712,-2.7774,-2.7837,-2.7845,-2.7819,-2.7768,-2.7813,-2.781,-2.7766,-2.7894,-2.7842,-2.7856,-2.7922,-2.8051,-2.8061,-2.8071,-2.8164,-2.8186,-2.8206,0,0,0,0,0,0,-2.7722,-2.7724,-2.7696,-2.7798,-2.7818,-2.7823,-2.7879,-2.7844,-2.7879,-2.7869,-2.7834,-2.7838,-2.7928,-2.7933,-2.7874,-2.8035,-2.7964,-2.7977,-2.8029,-2.8051,-2.8068,-2.8065,-2.7792,0,0,0,0,0,-2.7755,-2.7806,-2.7805,-2.7895,-2.7907,-2.7892,-2.7918,-2.7896,-2.7915,-2.7923,-2.7926,-2.7946,-2.799,-2.8021,-2.8062,-2.8171,-2.8173,-2.8223,-2.824,-2.8255,-2.8267,-2.8324,-2.8347,-2.8109,-2.8109,-2.8109,0,0,-2.7823,-2.7831,-2.7865,-2.7915,-2.7928,-2.7981,-2.7899,-2.796,-2.7999,-2.7932,-2.8011,-2.8014,-2.8034,-2.8131,-2.8173,-2.8137,-2.8333,-2.8268,-2.8279,-2.8283,-2.8337,-2.836,-2.838,-2.8116,-2.8114,-2.8113,0,0,-2.7975,-2.7986,-2.8062,-2.8077,-2.8097,-2.8086,-2.8105,-2.8115,-2.8114,-2.8192,-2.8143,-2.8189,-2.8267,-2.8283,-2.8301,-2.8458,-2.8419,-2.8472,-2.8563,-2.8619,-2.8638,-2.8655,-2.871,-2.8731,-2.8484,-2.8484,-2.8484,0,-2.8058,-2.8137,-2.8106,-2.817,-2.8192,-2.8134,-2.8211,-2.8226,-2.8259,-2.8276,-2.8235,-2.8331,-2.834,-2.844,-2.8478,-2.8495,-2.8514,-2.8471,-2.8638,-2.8654,-2.8669,-2.8722,-2.8743,-2.8491,-2.849,-2.8489,-2.8489,0,-2.8237,-2.8292,-2.8351,-2.8384,-2.8414,-2.8484,-2.8463,-2.8496,-2.8471,-2.8464,-2.8544,-2.8553,-2.8594,-2.8616,-2.8592,-2.8712,-2.8689,-2.8644,-2.8571,-2.8699,-2.8747,-2.8767,-2.85,-2.8497,-2.8496,-2.8494,0,0,-2.8451,-2.8466,-2.8488,-2.8502,-2.8519,-2.8561,-2.8628,-2.8668,-2.8697,-2.8721,-2.8776,-2.8842,-2.88,-2.8821,-2.8798,-2.8848,-2.8971,-2.8796,-2.8796,-2.8828,-2.9102,-2.9137,-2.9161,-2.8944,-2.8948,-2.8951,-2.9101,0,-2.8602,-2.8717,-2.8691,-2.8804,-2.8854,-2.8799,-2.8857,-2.8874,-2.8868,-2.891,-2.8903,-2.8951,-2.8892,-2.8904,-2.895,-2.8946,-2.9025,-2.8935,-2.8994,-2.8997,-2.8992,-2.9186,-2.9223,-2.9364,-2.912,-2.9123,-2.9125,0,-2.8794,-2.8825,-2.8944,-2.8952,-2.8972,-2.9025,-2.9059,-2.9099,-2.9117,-2.9109,-2.9132,-2.9099,-2.9164,-2.909,-2.9179,-2.9118,-2.914,-2.9141,-2.9146,-2.9151,-2.9069,-2.9197,-2.9408,-2.943,-2.9155,-2.9153,-2.915,0,-2.8938,-2.901,-2.909,-2.9103,-2.9115,-2.9153,-2.916,-2.9173,-2.9199,-2.9228,-2.9244,-2.9281,-2.9301,-2.933,-2.9308,-2.9256,-2.94,-2.9324,-2.9395,-2.9396,-2.9429,-2.9427,-2.9648,-2.9443,-2.9443,-2.9442,-2.9442,0,-2.911,-2.9184,-2.9155,-2.9204,-2.9286,-2.9254,-2.9335,-2.9335,-2.9347,-2.9395,-2.9349,-2.9395,-2.9362,-2.9405,-2.9387,-2.9463,-2.9472,-2.9468,-2.9462,-2.9472,-2.9473,-2.9487,-2.9477,-2.9448,-2.9447,-2.9445,-2.9445,0,-2.9286,-2.9269,-2.9352,-2.9356,-2.9359,-2.9419,-2.9422,-2.9467,-2.9458,-2.9519,-2.9531,-2.9517,-2.9564,-2.9544,-2.9595,-2.9583,-2.968,-2.9661,-2.9674,-2.967,-2.9742,-2.9736,-2.9979,-3.001,-2.9786,-2.9788,-2.979,0,-2.9397,-2.9453,-2.9463,-2.9491,-2.9501,-2.9548,-2.9573,-2.9544,-2.9572,-2.9595,-2.9638,-2.9681,-2.9715,-2.9793,-2.9787,-2.9825,-2.9807,-2.989,-2.9812,-2.982,-2.9808,-2.9805,-2.981,-2.9905,-2.9908,-2.991,-2.9912,0,-2.9595,-2.9584,-2.9623,-2.9659,-2.969,-2.9717,-2.974,-2.9766,-2.9737,-2.9771,-2.9819,-2.9845,-2.9896,-2.994,-2.9973,-2.9979,-2.9941,-2.9936,-2.9954,-2.9965,-2.9971,-2.9969,-2.9717,-2.9931,-2.9929,-2.9928,-2.9927,-2.9926,-2.9742,-2.9789,-2.9803,-2.9847,-2.9861,-2.9883,-2.9926,-2.9921,-2.9961,-3.0,-2.998,-3.0036,-3.005,-3.0091,-3.0102,-3.0144,-3.0112,-3.0139,-3.0146,-3.0153,-3.0162,-2.9964,-3.015,-3.015,-3.0149,-3.0149,-3.0148,0,-2.9938,-2.9944,-2.9985,-3.0018,-3.0053,-3.0014,-3.0037,-3.0068,-3.0118,-3.0135,-3.0168,-3.0223,-3.0264,-3.0261,-3.0299,-3.0334,-3.0317,-3.0345,-3.0342,-3.0344,-3.0189,-3.017,-3.0357,-3.0357,-3.0357,-3.0357,-3.0357,-3.0357,-3.0044,-3.0121,-3.0112,-3.0195,-3.0199,-3.0254,-3.027,-3.029,-3.0303,-3.0366,-3.0401,-3.0398,-3.0406,-3.0444,-3.048,-3.0478,-3.0494,-3.0528,-3.052,-3.0376,-3.0355,-3.0335,-3.0316,-3.0532,-3.0532,-3.0671,-3.0672,-3.0673]},{"header":{"parameterUnit":"m.s-1","parameterCategory":1,"la1":30.2991,"la2":30.254,"lo1":-89.0895,"lo2":-89.0444,"dy":0.0017,"dx":0.0017,"nx":28,"ny":28,"refTime":"2024-10-17T03:00:00:Z","depth":0,"parameterNumber":3,"parameterNumberName":"V-component_of_WINDS"},"data":[0,0,0,0,0,0,0,0,0,0,0,0,0,0,0,0,0,0,0,0,0,0,0,0,0,0,0,0,0,0,0,0,0,0,0,0,0,0,0,0,0,0,0,0,0,0,0,0,0,0,0,0,0,0,0,0,0,0,-6.7932,-6.7932,0,-6.7966,-6.7967,-6.7967,-6.7805,-6.78,-6.7796,-6.7791,-6.7824,-6.7829,-6.7834,0,0,0,0,0,0,0,0,0,0,0,0,0,-6.7721,-6.7726,-6.7932,-6.7932,-6.7933,-6.7966,-6.7967,-6.7967,-6.7806,-6.78,-6.7795,-6.7789,-6.7822,-6.7828,-6.7834,0,0,0,0,0,0,0,0,0,0,0,0,0,-6.779,-6.7727,-6.7932,-6.7856,-6.785,-6.7966,-6.7967,-6.7967,-6.7807,-6.78,-6.7793,-6.7786,-6.782,-6.7828,-6.7835,-6.8025,0,0,-6.7859,-6.7863,0,0,0,0,0,0,0,0,-6.7786,-6.7798,-6.7867,-6.7862,-6.7855,-6.7874,-6.7904,-6.7987,-6.7809,-6.7823,-6.7791,-6.7783,-6.7846,-6.7851,-6.7873,-6.8026,-6.8028,-6.786,-6.7865,-6.7868,-6.787,0,0,0,0,0,0,0,-6.7782,-6.7795,-6.7945,-6.7868,-6.7861,-6.7819,-6.7821,-6.7919,-6.7874,-6.7821,-6.781,-6.7816,-6.7841,-6.7866,-6.7873,-6.8028,-6.786,-6.7867,-6.7872,-6.7875,-6.8337,-6.8345,0,0,0,0,0,0,-6.7788,-6.7793,-6.7944,-6.7946,-6.7803,-6.7829,-6.7831,-6.7875,-6.7872,-6.7865,-6.7822,-6.7809,-6.7856,-6.7864,-6.7873,-6.8094,-6.7868,-6.7875,-6.788,-6.833,-6.8339,-6.8347,0,0,0,0,0,0,-6.7784,-6.7803,-6.7943,-6.7866,-6.7881,-6.784,-6.7891,-6.7879,-6.7904,-6.7873,-6.7863,-6.7856,-6.7851,-6.7862,-6.7988,-6.8093,-6.7879,-6.7886,-6.8321,-6.8333,-6.8343,-6.8539,0,0,0,0,0,0,-6.7778,-6.7802,-6.7875,-6.7869,-6.7886,-6.8059,-6.7897,-6.7885,-6.7918,-6.7901,-6.7902,-6.7896,-6.7846,-6.7978,-6.7996,-6.81,-6.7892,-6.8311,-6.8326,-6.8339,-6.8523,-6.8555,-6.8583,0,0,0,0,0,-6.7771,-6.7928,-6.788,-6.7899,-6.7976,-6.8066,-6.8075,-6.8016,-6.7928,-6.7999,-6.7979,-6.7896,-6.8079,-6.7992,-6.8011,-6.8119,-6.8304,-6.8322,-6.8338,-6.8509,-6.8549,-6.8583,0,0,0,0,0,0,-6.7946,-6.7926,-6.7872,-6.8032,-6.8052,-6.8038,-6.8127,-6.806,-6.8104,-6.8086,-6.8009,-6.8011,-6.815,-6.8147,-6.8051,-6.8302,-6.8176,-6.8198,-6.8299,-6.8337,-6.8366,-6.8364,-6.7899,0,0,0,0,0,-6.8004,-6.8079,-6.8057,-6.82,-6.8213,-6.8169,-6.8206,-6.8158,-6.8175,-6.8183,-6.8171,-6.8191,-6.8252,-6.8294,-6.8349,-6.8521,-6.8519,-6.8605,-6.8635,-6.866,-6.868,-6.877,-6.8808,-6.8403,-6.8403,-6.8403,0,0,-6.8122,-6.8121,-6.8173,-6.8235,-6.8245,-6.8324,-6.8177,-6.8267,-6.8324,-6.8196,-6.8314,-6.8307,-6.8323,-6.8473,-6.8538,-6.8475,-6.8791,-6.8682,-6.8702,-6.8708,-6.8791,-6.883,-6.8864,-6.8415,-6.8413,-6.8411,0,0,-6.8379,-6.8386,-6.8506,-6.8519,-6.8536,-6.8505,-6.8535,-6.8531,-6.8522,-6.864,-6.8545,-6.8611,-6.8719,-6.8734,-6.8756,-6.9018,-6.8942,-6.9038,-6.9196,-6.9285,-6.9317,-6.9344,-6.9437,-6.9472,-6.9058,-6.9058,-6.9059,0,-6.8524,-6.864,-6.8575,-6.8672,-6.8701,-6.859,-6.871,-6.8725,-6.8759,-6.8781,-6.871,-6.8842,-6.8845,-6.8997,-6.9061,-6.9082,-6.9112,-6.9037,-6.9318,-6.9345,-6.937,-6.9457,-6.9493,-6.907,-6.9068,-6.9067,-6.9066,0,-6.8818,-6.89,-6.8994,-6.9031,-6.9071,-6.9178,-6.9128,-6.9176,-6.9126,-6.9103,-6.9223,-6.9223,-6.9275,-6.9308,-6.9259,-6.9453,-6.9412,-6.9331,-6.9202,-6.9421,-6.9502,-6.9535,-6.9086,-6.9082,-6.9079,-6.9076,0,0,-6.9185,-6.9185,-6.9221,-6.9236,-6.9246,-6.9308,-6.9409,-6.9462,-6.9504,-6.9531,-6.9614,-6.9708,-6.9632,-6.9657,-6.9608,-6.9686,-6.9893,-6.9594,-6.9593,-6.9649,-7.0105,-7.0167,-7.0207,-6.9843,-6.9849,-6.9854,-7.0104,0,-6.9436,-6.9612,-6.9556,-6.9733,-6.9807,-6.9702,-6.979,-6.9806,-6.9787,-6.9846,-6.9823,-6.9891,-6.9786,-6.9801,-6.9873,-6.9853,-6.9983,-6.9834,-6.9918,-6.9922,-6.9917,-7.0249,-7.0314,-7.055,-7.0135,-7.014,-7.0144,0,-6.9753,-6.9793,-6.9978,-6.9976,-7.0004,-7.0085,-7.0128,-7.0187,-7.0201,-7.0182,-7.021,-7.0145,-7.0243,-7.0116,-7.0249,-7.0149,-7.018,-7.0175,-7.0182,-7.0187,-7.0046,-7.0263,-7.0624,-7.0659,-7.0193,-7.019,-7.0186,0,-7.0002,-7.0103,-7.0226,-7.0242,-7.0242,-7.0301,-7.0304,-7.0312,-7.0347,-7.0384,-7.0405,-7.0454,-7.048,-7.0518,-7.0467,-7.0379,-7.0608,-7.0476,-7.0594,-7.0595,-7.0646,-7.0644,-7.1017,-7.0668,-7.0667,-7.0667,-7.0666,0,-7.0287,-7.0404,-7.0337,-7.0414,-7.0541,-7.0475,-7.0602,-7.0592,-7.0601,-7.0672,-7.0583,-7.0652,-7.0581,-7.0642,-7.0603,-7.0719,-7.0732,-7.0718,-7.0706,-7.0726,-7.0728,-7.0744,-7.0727,-7.0676,-7.0674,-7.0672,-7.067,0,-7.0587,-7.0547,-7.0674,-7.0665,-7.0665,-7.0759,-7.0749,-7.0818,-7.0793,-7.0884,-7.0901,-7.0862,-7.0929,-7.0882,-7.095,-7.0923,-7.1076,-7.1041,-7.1071,-7.1062,-7.1181,-7.1171,-7.1579,-7.1628,-7.1248,-7.1252,-7.1255,0,-7.0772,-7.086,-7.0859,-7.0901,-7.091,-7.0978,-7.1014,-7.0952,-7.0992,-7.1015,-7.1081,-7.1141,-7.1186,-7.1299,-7.1275,-7.1326,-7.1291,-7.1431,-7.1298,-7.1315,-7.1293,-7.1288,-7.1296,-7.1458,-7.1462,-7.1466,-7.1469,0,-7.1104,-7.108,-7.1135,-7.1184,-7.1228,-7.1263,-7.129,-7.1329,-7.1267,-7.1316,-7.1385,-7.142,-7.1489,-7.1549,-7.1591,-7.1592,-7.1521,-7.1511,-7.154,-7.1561,-7.1575,-7.1568,-7.1144,-7.1501,-7.1498,-7.1496,-7.1494,-7.1493,-7.1351,-7.1424,-7.1435,-7.1499,-7.1513,-7.1541,-7.1605,-7.1588,-7.1645,-7.1697,-7.1656,-7.1738,-7.1749,-7.1798,-7.1808,-7.187,-7.1813,-7.1856,-7.1867,-7.1879,-7.1895,-7.1566,-7.1877,-7.1876,-7.1876,-7.1875,-7.1874,0,-7.1678,-7.168,-7.174,-7.1781,-7.1832,-7.176,-7.1787,-7.1833,-7.1907,-7.1924,-7.197,-7.2048,-7.2107,-7.2088,-7.2139,-7.2193,-7.2161,-7.2208,-7.2203,-7.2205,-7.1944,-7.1913,-7.2233,-7.2233,-7.2233,-7.2233,-7.2233,-7.2233,-7.1854,-7.1973,-7.1951,-7.2075,-7.2075,-7.2156,-7.2177,-7.2202,-7.2215,-7.2307,-7.2355,-7.2343,-7.2345,-7.2396,-7.2446,-7.2438,-7.2461,-7.2521,-7.2502,-7.2258,-7.2223,-7.2189,-7.2159,-7.2526,-7.2527,-7.2757,-7.2759,-7.2761]}]]